Reus, Spain

6:54 PM CET en Diciembre 18, 2018 (GMT +0100)
Reus Air Base

Tiempo Historia de LERS - Enero, 2018

Change the Weather History Date:

Domingo, Enero 14, 2018

  Actual Average Record
Temperature  
Temperatura media 45 ° F -  
Temperatura máxima 53 ° F 56 ° F 67 ° F (2015)
Temperatura mínima 37 ° F 39 ° F 24 ° F (2003)
Degree Days  
Grados día de calefacción 20    
Moisture  
Punto de rocío 37 ° F    
Average Humidity 65    
Maximum Humidity 93    
Minimum Humidity 43    
Precipitación  
Precipitación 0.00 pul - - ()
Presión al nivel del mar  
Presión al nivel del mar 30.01 pul    
Viento  
Velocidad del viento 8 mph ()    
Velocidad máxima del viento 17 mph    
Max Gust Speed -    
Visibilidad 11.2 Millas    
Eventos      
Averages and records for this station are not official NWS values.
T = Trace of Precipitation, MM = Missing Value Source: Averaged Metar Reports

Daily Weather History Graph

Daily Weather History Graph

Search for Another Location

Airport or City:

Astronomía

Jan. 14, 2018 Salida Puesta
Hora real 8:18 AM CET 5:50 PM CET
Crepúsculo civil 7:48 AM CET 6:20 PM CET
Crepúsculo náutico 7:14 AM CET 6:54 PM CET
Crepúsculo astronómico 6:41 AM CET 7:27 PM CET
Luna 6:01 AM CET (1/14) 3:56 PM CET (1/14)
Horas de luz 10h 32m
Horas de luz
9h 31m
Creciente menguante, 6% of the Moon is Illuminated
Ene 14
Creciente menguante
Ene 17
Nueva
Ene 24
Cuarto creciente
Ene 31
Luna llena
Feb 7
Cuarto menguante

Hourly Weather History & Observations

Hora (CET) Temp. Vientos helados Punto de rocío Humedad Presión Visibilidad Wind Dir Velocidad del viento Velocidad de ráfagas Precip Eventos Condiciones
12:00 AM 46.4 ° F 45.2 ° F 44.6 ° F 93% 29.98 pul - Oeste 3.5 mph - N/A   Despejado
12:30 AM 46.4 ° F 42.9 ° F 42.8 ° F 87% 29.95 pul - OSO 6.9 mph - N/A   Despejado
1:00 AM 47 ° F - 41 ° F 71% 29.97 pul 19 mi Oeste 6.9 mph - -  
1:00 AM 48.2 ° F - 41.0 ° F 76% 29.95 pul - Oeste 4.6 mph - N/A   Despejado
1:30 AM 48.2 ° F - 42.8 ° F 82% 29.95 pul - OSO 8.1 mph - N/A   Despejado
2:00 AM 49 ° F - 38 ° F 57% 29.96 pul 19 mi ONO 9.2 mph - -  
2:00 AM 48.2 ° F - 39.2 ° F 71% 29.95 pul - Oeste 6.9 mph - N/A   Despejado
2:30 AM 50.0 ° F - 37.4 ° F 62% 29.95 pul - Oeste 9.2 mph - N/A   Despejado
3:00 AM 49 ° F - 37 ° F 53% 29.95 pul 19 mi ONO 16.1 mph - -  
3:00 AM 50.0 ° F - 37.4 ° F 62% 29.95 pul - Oeste 13.8 mph - N/A   Despejado
3:30 AM 50.0 ° F - 37.4 ° F 62% 29.95 pul - Oeste 12.7 mph - N/A   Despejado
4:00 AM 48 ° F - 35 ° F 51% 29.96 pul 19 mi ONO 8.1 mph - -  
4:00 AM 48.2 ° F - 37.4 ° F 66% 29.95 pul - ONO 9.2 mph - N/A   Despejado
4:30 AM 48.2 ° F - 35.6 ° F 62% 29.95 pul 6.2 mi Oeste 8.1 mph - N/A   Desconocido
5:00 AM 47 ° F - 37 ° F 57% 29.95 pul 19 mi Oeste 17.3 mph - -  
5:00 AM 46.4 ° F 40.4 ° F 37.4 ° F 71% 29.95 pul 6.2 mi Oeste 13.8 mph - N/A   Desconocido
5:30 AM 46.4 ° F 40.7 ° F 37.4 ° F 71% 29.95 pul - Oeste 12.7 mph - N/A   Despejado
6:00 AM 46 ° F - 37 ° F 63% 29.96 pul 19 mi Oeste 12.7 mph - -  
6:00 AM 46.4 ° F 39.8 ° F 37.4 ° F 71% 29.95 pul - Oeste 16.1 mph - N/A   Despejado
6:30 AM 46.4 ° F 40.1 ° F 37.4 ° F 71% 29.95 pul - OSO 15.0 mph - N/A   Despejado
7:00 AM 45 ° F - 36 ° F 62% 29.97 pul 19 mi Oeste 13.8 mph - -   Nubes dispersas
7:00 AM 46.4 ° F 40.4 ° F 37.4 ° F 71% 29.95 pul 6.2 mi Oeste 13.8 mph - N/A   Parcialmente nublado
7:30 AM 44.6 ° F 38.4 ° F 37.4 ° F 76% 29.95 pul 6.2 mi Oeste 12.7 mph - N/A   Parcialmente nublado
8:00 AM 45 ° F - 36 ° F 62% 29.98 pul 19 mi Oeste 8.1 mph - -  
8:00 AM 44.6 ° F 39.7 ° F 37.4 ° F 76% 29.98 pul 6.2 mi Oeste 9.2 mph - N/A   Nubes dispersas
8:30 AM 46.4 ° F 43.5 ° F 37.4 ° F 71% 29.98 pul 6.2 mi ONO 5.8 mph - N/A   Muy nublado
9:00 AM 45 ° F - 36 ° F 63% 30.00 pul 19 mi Oeste 6.9 mph - -  
9:00 AM 46.4 ° F 41.5 ° F 37.4 ° F 71% 29.98 pul 6.2 mi Oeste 10.4 mph - N/A   Muy nublado
9:30 AM 48.2 ° F - 37.4 ° F 66% 29.98 pul 6.2 mi OSO 8.1 mph - N/A   Muy nublado
10:00 AM 48 ° F - 37 ° F 55% 30.02 pul 19 mi Oeste 6.9 mph - -   Muy nublado
10:00 AM 48.2 ° F - 37.4 ° F 66% 30.01 pul 6.2 mi Oeste 8.1 mph - N/A   Muy nublado
10:30 AM 50.0 ° F - 37.4 ° F 62% 30.01 pul 6.2 mi OSO 5.8 mph - N/A   Muy nublado
11:00 AM 50 ° F - 37 ° F 50% 30.03 pul 19 mi Oeste 10.4 mph - -  
11:00 AM 50.0 ° F - 39.2 ° F 66% 30.01 pul 6.2 mi OSO 8.1 mph - N/A   Nubes dispersas
11:30 AM 50.0 ° F - 37.4 ° F 62% 30.01 pul 6.2 mi OSO 9.2 mph - N/A   Nubes dispersas
12:00 PM 51 ° F - 37 ° F 47% 30.03 pul 19 mi Oeste 15.0 mph - -  
12:00 PM 51.8 ° F - 37.4 ° F 58% 30.01 pul 6.2 mi Oeste 12.7 mph - N/A   Parcialmente nublado
12:30 PM 51.8 ° F - 37.4 ° F 58% 30.01 pul 6.2 mi Oeste 13.8 mph - N/A   Nubes dispersas
1:00 PM 53 ° F - 38 ° F 45% 30.01 pul 19 mi Oeste 15.0 mph - -   Parcialmente nublado
1:00 PM 51.8 ° F - 37.4 ° F 58% 30.01 pul 6.2 mi Oeste 11.5 mph - N/A   Nubes dispersas
1:30 PM 53.6 ° F - 37.4 ° F 54% 29.98 pul 6.2 mi ONO 10.4 mph - N/A   Nubes dispersas
2:00 PM 53 ° F - 38 ° F 44% 29.99 pul 19 mi ONO 12.7 mph - -  
2:00 PM 51.8 ° F - 37.4 ° F 58% 29.98 pul 6.2 mi ONO 10.4 mph - N/A   Nubes dispersas
2:30 PM 51.8 ° F - 37.4 ° F 58% 29.98 pul 6.2 mi ONO 12.7 mph - N/A   Nubes dispersas
3:00 PM 53 ° F - 37 ° F 43% 30.01 pul 19 mi Oeste 11.5 mph - -  
3:00 PM 53.6 ° F - 37.4 ° F 54% 29.98 pul 6.2 mi OSO 10.4 mph - N/A   Nubes dispersas
3:30 PM 53.6 ° F - 37.4 ° F 54% 30.01 pul 6.2 mi OSO 10.4 mph - N/A   Nubes dispersas
4:00 PM 52 ° F - 37 ° F 46% 30.02 pul 19 mi ONO 8.1 mph - -   Parcialmente nublado
4:00 PM 51.8 ° F - 37.4 ° F 58% 30.01 pul 6.2 mi Oeste 6.9 mph - N/A   Nubes dispersas
4:30 PM 51.8 ° F - 37.4 ° F 58% 30.01 pul 6.2 mi Oeste 9.2 mph - N/A   Nubes dispersas
5:00 PM 50 ° F - 37 ° F 51% 30.04 pul 19 mi Oeste 5.8 mph - -  
5:00 PM 51.8 ° F - 37.4 ° F 58% 30.01 pul 6.2 mi ONO 6.9 mph - N/A   Nubes dispersas
5:30 PM 50.0 ° F - 37.4 ° F 62% 30.04 pul 6.2 mi NO 2.3 mph - N/A   Nubes dispersas
6:00 PM 49 ° F - 37 ° F 54% 30.05 pul 19 mi ONO 5.8 mph - -  
6:00 PM 48.2 ° F - 37.4 ° F 66% 30.04 pul 6.2 mi Oeste 4.6 mph - N/A   Nubes dispersas
6:30 PM 48.2 ° F - 37.4 ° F 66% 30.04 pul 6.2 mi ONO 4.6 mph - N/A   Nubes dispersas
7:00 PM 46 ° F - 37 ° F 60% 30.07 pul 19 mi Oeste 4.6 mph - -   Nubes dispersas
7:00 PM 44.6 ° F - 35.6 ° F 71% 30.06 pul 6.2 mi Variable 2.3 mph - N/A   Parcialmente nublado
7:30 PM 42.8 ° F - 35.6 ° F 76% 30.06 pul 6.2 mi Variable 1.2 mph - N/A   Parcialmente nublado
8:00 PM 44 ° F - 37 ° F 68% 30.10 pul 19 mi NE 1.2 mph - -  
8:00 PM 44.6 ° F - 37.4 ° F 76% 30.09 pul 6.2 mi Sin viento Sin viento - N/A   Parcialmente nublado
8:30 PM 44.6 ° F - 37.4 ° F 76% 30.09 pul 6.2 mi Sin viento Sin viento - N/A   Parcialmente nublado
9:00 PM 44 ° F - 37 ° F 68% 30.12 pul 19 mi Norte 1.2 mph - -  
9:00 PM 42.8 ° F - 37.4 ° F 81% 30.09 pul 6.2 mi Sin viento Sin viento - N/A   Parcialmente nublado
9:30 PM 42.8 ° F - 37.4 ° F 81% 30.09 pul - Sin viento Sin viento - N/A   Despejado
10:00 PM 41.0 ° F - 35.6 ° F 81% 30.12 pul - Variable 1.2 mph - N/A   Despejado
10:30 PM 39.2 ° F - 35.6 ° F 87% 30.12 pul 6.2 mi Sin viento Sin viento - N/A   Desconocido
11:00 PM 39 ° F - 35 ° F 79% 30.15 pul 19 mi NNE 3.5 mph - -  
11:00 PM 37.4 ° F - 33.8 ° F 87% 30.12 pul 6.2 mi Sin viento Sin viento - N/A   Desconocido
11:30 PM 39.2 ° F - 35.6 ° F 87% 30.12 pul 6.2 mi Sin viento Sin viento - N/A   Desconocido